Location: Recife
(8.0585°S, 34.8848°W)
Time: 12:18:17
(UTC-03:00)

Courier 1B - Pass Details

Date: 14 April 2026
Orbit: 962 x 1209 km, 28.3° (Epoch: 7 May)

Event Time Altitude Azimuth Distance (km) Brightness Sun altitude
Rises 10:05:45 0° 240° (WSW) 4,107 10.5 64.5°
Reaches altitude 10° 10:10:08 10° 218° (SW) 3,122 10.0 65.3°
Maximum altitude 10:14:25 15° 184° (S) 2,699 9.8 66.0°
Drops below altitude 10° 10:18:37 10° 150° (SSE) 3,050 10.1 66.7°
Sets 10:22:50 0° 128° (SE) 3,960 10.7 67.4°
